Theta_e
318 319 319 321 330 335 335 333 328 328 329 330 333 338 339 346 349 353 343 345 346 345 344 343 342 340 339 335 331 330 330 331 331 331 330 329 329 327 327 325 324 324 324 324 324 323 323 323 323
317 319 320 322 324 328 336 333 332 328 333 334 337 340 341 349 346 345 345 346 345 344 344 342 340 339 335 330 330 329 331 331 330 329 328 326 325 324 324 324 324 324 324 323 323 322 322 323 322
318 318 322 320 321 325 329 331 331 328 336 337 340 340 343 349 344 344 345 345 343 344 343 341 339 335 331 330 329 330 330 330 328 326 325 325 325 324 324 323 323 322 322 322 320 319 319 320 320
317 318 317 320 319 321 324 326 328 330 336 336 338 342 346 344 343 344 345 344 344 343 341 339 336 332 330 330 330 329 330 328 325 324 324 325 324 323 322 321 321 320 319 318 318 317 316 317 317
316 318 317 314 316 318 320 322 324 328 334 335 337 344 348 344 343 344 344 344 343 341 339 336 333 331 330 329 329 328 328 326 325 325 324 324 322 321 319 318 317 316 316 315 315 315 314 314 314
318 315 315 316 315 314 316 318 321 327 330 333 335 341 346 343 343 342 343 343 341 339 336 333 331 330 330 328 327 327 327 325 324 323 322 320 319 319 317 315 314 313 313 312 311 308 302 302 302
317 317 315 314 315 315 315 316 317 323 328 331 335 337 345 341 342 342 342 341 339 337 334 331 329 328 327 326 326 326 325 324 322 321 320 316 317 315 308 306 308 307 305 303 302 301 301 301 300
316 317 315 315 315 314 314 315 317 322 327 326 334 339 346 341 341 342 341 340 338 335 332 329 327 325 323 323 324 323 322 321 315 309 308 307 306 305 309 302 302 302 303 303 303 303 305 306 306
317 319 318 315 315 316 315 313 314 321 325 326 335 339 341 341 341 340 339 337 336 334 332 329 325 322 321 321 321 317 315 311 308 307 311 312 309 307 302 302 303 303 304 305 306 306 306 306 306
317 318 316 313 311 313 315 316 317 319 320 323 338 339 341 340 340 338 337 336 335 334 331 328 323 321 320 320 313 310 310 314 313 311 312 312 309 306 304 305 306 306 307 307 307 307 307 307 306
316 317 316 315 314 316 318 318 317 319 321 322 330 342 339 339 338 338 336 335 334 333 331 326 322 320 319 316 317 314 314 314 313 312 311 310 307 306 306 306 307 307 307 307 307 307 307 307 307
316 315 314 315 315 316 317 316 317 318 317 318 319 333 337 337 336 337 336 333 333 332 329 324 319 319 317 317 315 314 313 313 312 311 310 309 308 307 307 306 307 307 307 307 308 308 308 308 307
317 316 315 315 314 315 315 315 315 316 316 316 320 323 337 334 334 336 336 334 333 331 327 322 319 318 317 316 316 314 314 312 311 310 309 309 308 307 307 307 307 307 307 307 308 308 308 308 308
317 316 316 315 315 314 314 314 312 312 313 315 316 323 329 334 334 334 335 334 334 330 324 320 318 318 317 317 315 314 313 312 311 310 308 309 308 307 308 308 308 308 308 308 308 309 309 309 309
317 318 317 316 315 315 314 314 313 311 312 313 314 320 323 330 335 334 335 334 334 329 323 318 318 318 317 317 315 315 314 312 311 310 308 308 308 307 308 308 309 308 308 309 309 309 309 309 308
317 317 319 316 315 315 315 316 313 311 310 311 312 314 321 324 335 334 335 334 333 327 322 318 317 317 317 316 315 315 314 313 312 311 309 309 309 309 309 310 310 309 309 309 309 309 309 308 308
317 318 318 318 316 316 315 316 314 312 310 308 310 311 313 325 329 335 334 334 331 327 322 318 316 316 316 316 314 314 313 314 313 312 311 310 309 309 310 311 311 310 310 310 309 309 309 308 307
320 320 319 318 316 316 317 315 313 312 311 308 308 309 311 326 329 334 334 334 330 326 321 318 316 315 315 315 314 314 314 314 313 313 312 311 311 310 311 311 311 310 310 310 309 309 308 308 305
317 315 316 314 314 315 317 316 315 314 311 309 309 310 311 313 328 332 334 334 330 323 320 317 315 315 315 314 314 315 314 314 314 314 313 312 312 311 311 312 311 311 310 309 309 308 308 307 303
312 312 313 312 313 315 315 316 316 314 313 310 309 309 311 312 329 331 333 332 329 322 318 316 315 315 314 314 314 314 314 314 313 313 312 313 313 312 312 312 312 311 310 310 309 308 306 306 305
312 313 314 314 313 314 316 317 316 314 313 313 311 309 310 312 328 328 329 331 328 321 317 316 315 315 314 313 314 314 314 314 313 313 312 313 313 313 312 311 311 310 309 310 308 306 305 304 304
314 312 313 315 316 316 316 323 316 314 314 313 311 308 308 310 325 327 327 328 328 321 318 316 315 314 314 314 314 314 313 312 312 312 313 312 312 312 311 311 310 310 310 310 308 305 303 303 302
314 313 314 314 317 316 315 318 316 312 313 313 310 308 309 313 321 327 326 327 326 320 318 317 316 315 314 314 312 312 312 314 314 314 313 312 311 311 311 310 310 310 309 309 307 304 303 301 301
313 314 314 314 317 320 315 315 314 314 312 312 310 308 311 313 322 327 326 327 323 320 319 318 316 315 314 313 312 313 315 315 314 313 313 312 311 310 310 309 309 310 309 307 303 300 299 300 299
310 313 319 318 318 317 314 315 315 314 311 312 313 310 308 316 324 329 328 326 323 321 320 318 316 315 314 313 313 314 314 314 314 313 313 312 311 310 309 308 309 308 307 304 298 297 297 297 297
315 314 318 323 321 320 313 315 313 310 311 311 312 311 312 323 326 327 328 326 324 322 320 318 316 314 314 313 313 314 315 315 314 313 311 310 310 309 309 308 307 305 301 296 295 295 296 295 295
315 316 315 320 317 314 315 315 313 311 311 312 311 312 314 321 324 324 324 324 323 321 320 317 315 314 313 313 313 314 314 313 311 310 309 309 309 309 307 305 303 299 296 295 295 295 295 294 295
315 315 319 318 319 320 317 316 314 312 312 314 313 312 314 320 320 320 320 320 320 320 319 317 315 313 313 313 313 313 311 310 309 308 308 308 307 305 303 301 298 296 295 294 293 294 294 294 294
317 318 316 315 316 317 315 316 310 310 312 314 312 312 312 317 316 317 317 317 316 316 316 315 313 313 313 312 311 310 309 308 307 307 307 306 303 301 300 297 296 295 294 293 293 293 293 293 293
314 316 316 322 322 316 318 313 308 310 312 313 312 312 312 314 314 313 312 313 313 313 313 312 311 311 310 310 309 308 307 306 306 305 303 302 300 298 296 295 294 294 293 293 293 293 293 294 294
Wind_Speed
17 14 13 7 1 4 9 10 10 1 3 3 4 6 4 7 3 5 18 25 30 28 24 24 20 17 16 14 12 11 13 13 13 12 12 12 12 12 12 12 12 12 12 12 13 13 12 12 11
18 15 9 3 4 8 10 13 16 5 6 7 6 6 2 5 7 7 10 30 29 27 24 22 19 18 16 14 14 13 14 13 13 12 13 12 13 12 13 13 13 13 13 13 13 13 12 12 11
16 11 2 4 6 13 12 14 10 7 10 6 4 3 4 5 11 13 17 33 27 26 23 21 19 17 15 16 15 15 14 14 13 13 13 13 13 13 13 12 12 13 12 12 12 12 12 11 11
7 2 4 5 14 16 16 12 16 7 5 8 6 5 5 5 17 15 27 30 30 26 22 21 19 18 16 16 16 16 15 13 13 13 13 13 13 12 12 12 12 12 11 11 11 11 11 11 11
9 4 5 8 16 16 12 21 21 6 9 6 5 7 5 10 18 28 28 29 29 24 22 22 19 17 17 16 16 16 15 15 14 13 13 12 12 11 12 12 12 11 10 11 11 10 10 10 10
4 3 6 13 16 14 18 18 13 7 8 9 7 6 4 18 21 24 28 28 28 26 22 20 19 18 17 16 16 15 15 15 14 13 12 11 12 11 11 11 11 10 11 10 10 10 10 10 11
4 5 11 14 14 13 13 17 18 9 8 6 8 7 6 12 22 24 26 27 25 25 22 21 20 19 18 17 16 16 15 14 13 12 11 11 11 11 11 10 10 10 11 11 12 12 12 13 14
4 5 10 11 11 16 18 11 17 10 7 7 10 7 7 12 29 24 26 25 27 26 23 22 20 18 18 19 18 17 15 13 12 11 10 10 10 9 9 9 10 11 12 13 13 14 13 13 16
7 4 6 10 13 13 14 17 12 5 2 5 2 6 11 33 30 24 22 25 27 24 24 22 20 18 15 18 18 15 13 11 11 11 13 11 9 6 8 10 11 11 13 14 16 15 16 14 13
5 5 7 11 13 9 12 15 11 5 7 5 6 13 26 27 26 22 20 19 22 24 23 22 22 22 17 15 17 14 13 10 8 10 10 10 8 5 8 10 10 13 12 13 13 14 13 12 10
5 12 14 19 17 8 10 13 10 7 6 6 5 16 18 18 20 20 20 20 21 23 22 23 22 22 20 14 18 12 11 11 8 8 9 5 6 7 7 7 8 9 9 10 9 9 10 10 10
12 14 15 15 14 10 8 12 13 8 9 8 9 5 16 14 13 19 22 22 23 22 22 22 23 22 18 17 16 15 13 12 10 8 8 7 5 7 5 4 6 5 7 7 8 8 8 8 7
14 11 12 15 9 8 12 14 12 13 15 13 7 4 12 11 13 18 22 23 23 23 23 23 24 23 20 18 15 15 14 12 11 10 8 6 5 7 4 4 3 4 5 5 6 7 8 8 9
11 14 13 10 12 9 12 15 11 10 10 15 10 6 8 17 17 18 22 25 27 24 25 25 25 22 22 16 18 15 15 13 10 9 10 7 5 6 4 3 4 3 5 6 7 8 8 8 8
13 13 14 14 11 12 9 16 20 17 14 18 13 9 8 9 26 23 22 26 26 27 27 25 25 22 23 18 17 17 15 15 12 10 10 8 6 5 3 2 1 3 5 5 6 7 7 7 7
12 10 7 10 16 16 10 17 13 15 18 20 17 11 8 9 17 26 27 26 27 29 28 26 24 23 22 20 17 16 15 15 12 9 9 9 7 6 5 2 1 3 4 6 6 7 8 7 8
3 6 11 9 4 6 9 16 14 17 18 18 18 13 11 9 7 25 28 30 28 29 31 29 26 25 23 21 17 15 15 13 12 11 8 9 7 6 4 2 1 3 5 5 6 5 7 7 9
3 5 4 9 9 7 12 14 11 16 14 12 13 18 15 13 11 16 28 28 27 30 32 30 28 26 24 22 18 16 16 12 11 11 9 9 6 6 6 2 0 2 3 2 4 4 6 5 10
8 10 13 14 14 14 12 16 16 13 13 11 9 8 10 9 14 21 26 26 28 32 32 31 29 28 27 25 22 19 18 15 13 12 11 10 8 6 5 4 1 1 2 3 4 4 4 6 12
11 14 15 14 14 11 14 17 19 16 14 11 10 10 11 11 17 15 20 23 26 32 34 32 30 29 28 25 22 19 17 13 11 11 10 9 9 8 5 5 3 2 1 2 3 5 5 5 11
9 10 12 16 14 12 12 15 17 22 20 15 13 10 11 9 17 15 15 20 25 29 35 33 30 31 27 24 21 19 18 16 15 12 10 10 8 7 7 6 4 3 2 0 2 3 5 4 6
10 7 12 13 9 4 1 5 9 14 20 19 15 11 10 9 13 17 15 18 22 28 34 31 32 32 27 27 25 24 22 17 12 12 9 9 9 8 7 7 5 3 2 1 1 1 3 4 7
6 8 11 13 11 9 14 6 7 8 9 14 11 10 10 8 8 18 17 23 21 32 35 31 30 31 28 27 24 22 16 12 14 13 12 8 7 7 5 5 5 4 3 3 2 1 1 3 4
6 7 12 10 5 6 15 8 5 5 2 2 12 12 11 10 8 17 24 23 19 26 32 28 31 29 28 25 23 21 17 16 15 12 10 9 6 6 5 6 5 5 4 2 1 1 1 2 2
4 3 2 2 3 4 3 6 10 16 10 4 6 8 10 10 8 15 17 18 23 26 27 29 31 31 30 24 22 20 18 14 13 11 10 10 8 7 6 5 7 5 5 4 3 2 2 1 2
3 3 3 4 1 3 4 4 5 4 7 7 7 8 7 9 8 10 14 20 25 28 26 26 27 26 27 27 22 18 16 15 12 11 10 8 7 6 6 7 6 5 4 3 3 2 2 2 1
3 4 4 5 5 2 4 5 6 6 6 8 9 8 7 8 8 10 8 16 19 22 24 27 25 27 25 23 21 18 16 14 12 11 10 10 9 9 7 7 6 5 4 3 3 3 2 2 3
6 5 3 2 3 4 3 1 1 8 8 5 3 4 5 9 9 7 9 15 18 21 23 25 25 25 24 22 20 17 15 13 11 11 11 9 8 7 7 6 5 4 3 2 2 2 3 4 5
4 3 4 4 4 2 4 0 3 5 6 7 6 6 7 9 7 8 6 16 16 18 21 23 23 24 24 21 19 19 16 14 12 12 10 9 8 7 7 6 5 3 2 2 3 3 5 8 9
3 5 4 3 3 1 2 5 1 4 6 5 6 6 6 8 8 7 8 16 18 18 20 22 23 24 22 21 20 17 16 14 14 11 10 8 8 7 6 4 4 2 2 3 4 5 6 9 13
Wind_Direction
327 330 310 283 242 215 245 239 252 254 26 70 334 74 341 52 35 145 139 130 127 134 146 146 145 155 136 132 130 122 114 110 106 100 94 89 85 80 75 70 66 62 59 55 51 48 44 40 37
331 324 286 267 214 234 243 234 255 187 118 81 46 56 332 93 84 114 113 133 134 137 142 149 156 145 137 134 128 121 118 114 108 102 95 90 85 81 76 73 69 63 60 56 53 50 46 43 41
318 282 265 204 231 224 237 252 236 164 117 129 106 343 18 86 106 139 124 134 138 140 147 151 152 140 138 133 128 124 120 115 108 102 97 91 88 83 78 73 67 62 60 57 51 49 47 45 39
305 185 278 248 233 224 246 259 270 102 108 151 165 141 73 5 144 142 137 138 138 135 149 150 144 141 138 133 130 126 123 117 109 104 99 95 91 85 79 75 70 64 59 55 51 48 45 41 36
244 266 243 229 243 257 245 237 265 252 150 171 218 155 94 65 123 140 137 138 139 138 148 147 141 139 136 134 131 128 125 119 114 109 105 100 93 88 83 77 71 66 60 53 50 46 43 39 34
288 233 245 236 250 242 255 266 272 242 185 188 192 139 111 129 135 151 140 137 139 139 142 142 141 139 136 134 132 130 127 123 118 113 108 102 97 93 86 79 73 67 60 54 50 45 41 37 33
252 281 247 262 267 263 236 247 264 262 243 207 139 208 126 145 151 152 144 141 145 140 149 149 147 144 141 137 134 132 130 126 123 120 114 107 102 93 84 77 73 67 61 54 51 47 45 46 40
284 262 262 261 263 273 288 291 237 243 238 317 153 172 162 163 152 145 149 150 147 148 149 149 149 147 147 141 144 142 136 131 127 122 114 102 90 87 84 72 69 65 59 53 49 49 51 44 39
296 261 266 255 258 279 275 293 301 356 187 356 99 60 122 142 148 148 150 147 149 150 153 156 148 143 147 153 154 147 143 132 125 118 108 96 68 57 78 74 67 61 57 49 46 47 47 36 31
208 243 266 284 293 297 323 329 333 7 312 277 90 81 117 139 149 155 159 155 152 160 158 155 155 152 152 157 145 138 130 116 114 111 102 112 158 143 77 60 55 47 44 37 33 34 35 31 38
239 254 277 290 298 352 340 321 312 352 310 321 341 144 142 149 158 165 163 160 166 165 159 159 159 154 153 158 144 138 127 143 142 145 135 152 110 79 64 48 45 43 38 33 37 34 22 24 22
244 266 281 290 298 319 307 313 318 315 287 330 4 126 144 161 171 174 168 167 173 171 162 162 164 154 156 160 157 153 153 148 155 146 156 137 150 130 115 77 63 43 45 38 25 21 17 19 11
307 266 265 285 293 302 302 288 282 288 298 318 1 14 163 172 185 185 175 175 179 171 166 166 170 160 160 170 161 156 158 151 157 157 140 161 145 125 112 94 69 39 55 26 27 10 18 20 8
297 306 296 291 291 270 263 274 281 257 270 273 274 228 212 174 180 190 183 189 179 172 168 169 171 166 161 172 162 160 150 159 148 155 153 145 156 135 126 79 75 31 19 32 23 11 15 9 2
299 281 280 272 245 243 256 256 250 263 266 273 274 211 221 202 173 185 194 194 178 166 169 172 172 170 164 170 169 162 161 152 155 155 155 158 145 142 139 126 57 14 30 32 21 6 19 12 7
281 286 277 270 263 224 215 259 266 239 239 243 254 266 202 222 180 181 185 202 171 163 172 172 170 170 166 167 168 168 167 157 153 163 158 155 161 163 152 118 301 26 24 17 26 12 6 12 1
280 282 288 303 254 311 231 257 258 252 255 232 235 235 245 187 206 177 181 202 168 170 171 172 172 170 166 166 165 168 155 160 164 157 167 160 176 168 156 154 343 30 24 22 21 15 3 2 355
299 317 308 309 311 327 303 283 258 276 285 241 227 221 238 182 184 182 180 194 172 174 170 172 171 169 166 163 165 164 162 161 164 164 170 176 186 183 166 184 258 58 28 9 12 15 20 10 345
244 273 283 286 290 305 279 282 284 271 263 264 271 224 243 213 175 184 182 187 177 166 167 171 169 170 164 163 166 168 167 166 169 173 182 182 182 190 183 178 178 33 336 22 18 11 12 6 2
276 278 281 284 278 269 274 279 281 263 259 231 231 243 243 245 161 161 175 178 180 163 165 167 171 169 168 170 173 171 168 174 176 182 190 181 186 195 187 184 188 239 104 20 16 23 26 45 15
281 282 288 273 277 278 263 272 267 258 254 247 226 222 240 230 161 161 173 184 175 162 161 166 170 170 174 169 164 163 165 160 165 188 185 187 181 209 193 195 197 228 133 36 19 35 35 28 45
279 280 304 302 297 257 352 290 293 276 226 226 217 214 230 238 157 161 170 187 178 161 162 167 173 172 171 171 174 172 171 168 187 183 175 175 184 209 197 190 193 177 182 172 335 22 58 38 35
260 7 311 311 293 289 274 270 269 301 212 209 209 207 217 217 162 165 168 183 172 161 162 172 170 170 170 178 178 172 166 165 152 161 170 190 177 195 192 181 190 194 182 213 186 81 67 54 59
331 306 276 267 262 239 244 214 272 260 299 231 192 194 186 194 197 162 165 171 150 154 163 174 168 167 176 177 176 170 162 159 157 166 171 182 182 191 192 190 190 187 193 202 187 185 123 122 89
61 275 263 203 219 234 13 188 248 292 319 61 355 332 182 172 167 149 161 160 157 159 168 167 169 170 177 174 175 172 164 167 168 168 174 179 176 194 194 186 187 190 198 213 199 166 144 132 167
207 256 299 294 287 322 6 223 254 104 57 25 4 345 159 132 139 150 149 161 163 168 169 165 167 163 173 174 170 168 159 166 161 168 173 174 181 182 192 173 173 193 202 189 175 160 176 232 214
165 222 229 297 227 316 196 258 325 85 63 32 18 6 33 107 114 110 109 124 136 149 164 165 162 163 170 165 164 161 164 166 165 170 167 169 168 176 186 177 178 181 182 180 178 168 207 251 259
211 330 326 257 308 309 307 336 43 8 1 28 356 321 46 79 99 107 121 127 146 160 159 157 159 159 159 157 158 160 158 153 160 157 156 168 172 170 164 160 172 176 183 182 193 214 245 267 277
207 256 234 263 221 257 319 250 333 336 2 338 50 82 87 87 97 94 113 126 137 138 141 140 146 148 147 148 148 151 154 150 151 148 153 156 151 151 152 162 166 164 172 222 245 260 277 288 295
335 267 254 268 337 350 203 279 38 7 7 352 68 100 105 99 95 96 97 106 120 126 132 132 136 139 142 145 150 150 144 144 144 142 143 149 144 140 148 146 142 165 224 251 280 285 287 292 300